Simultaneous Nadir Overpasses (SNOs) Predictions

Prediction of SNOs between AQUA and METOP-A Satellite Orbit:

Table of predicted SNOs for the next 14.0 days since TLE Epoch: 9/28/2012
Index Date (AQUA) Time (AQUA) AQUA Lat,Lon Date (METOP-A) Time (METOP-A) METOP-A Lat,Lon Distance(km) Time Diff (sec)
1 09/30/2012 10:46:16 73.79, 12.68 09/30/2012 10:45:27 73.76, 12.67 3.10 49
2 09/30/2012 11:35:43 -73.85,-179.81 09/30/2012 11:36:07 -73.86,-179.78 1.35 24
3 10/03/2012 06:21:00 73.71, 79.17 10/03/2012 06:19:47 73.66, 78.85 10.91 73
4 10/03/2012 07:10:28 -73.80,-113.39 10/03/2012 07:10:26 -73.81,-113.46 2.82 2
5 10/03/2012 07:59:58 73.91, 54.00 10/03/2012 08:01:04 73.89, 54.04 2.99 66
6 10/06/2012 02:45:35 -73.81, -47.19 10/06/2012 02:44:44 -73.79, -47.10 3.62 51
7 10/06/2012 03:35:04 73.86, 120.33 10/06/2012 03:35:22 73.85, 120.39 2.01 18
8 10/06/2012 04:24:45 -74.60, -73.76 10/06/2012 04:25:49 -74.59, -70.41 98.98 64
9 10/08/2012 23:10:29 73.77,-173.33 10/08/2012 23:09:39 73.79,-173.33 2.42 50
10 10/08/2012 23:59:57 -73.82, -5.82 10/09/2012 00:00:20 -73.85, -5.86 3.15 23
11 10/09/2012 00:49:40 74.59, 160.03 10/09/2012 00:50:44 74.59, 163.36 98.28 64
12 10/11/2012 19:35:42 -73.78, 60.33 10/11/2012 19:34:35 -73.76, 60.36 2.45 67
13 10/11/2012 20:25:11 73.81,-132.11 10/11/2012 20:25:13 73.81,-132.18 2.15 2




NCC Satellite Simultaneous Nadir Overpasses (SNOs) Prediction Service
